Tracking 17925 objects as of 20-January-2017
HD Live streaming from Space Station
objects crossing your sky now

TDRS 3

Track TDRS 3 now!
TDRS 3 is classified as:


NORAD ID: 19548
Int'l Code: 1988-091B
Perigee: 35,625.4 km
Apogee: 35,958.9 km
Inclination: 14.9 °
Period: 1,436.0 minutes
Semi major axis: 42163 km
RCS: 38.9601 m2 (large)
Launch date: September 29, 1988
Source: United States (US)
Launch site: AIR FORCE EASTERN TEST RANGE (AFETR)

Backup; still partially operational.
Your satellite tracking list
Your tracking list is empty





NASA's NSSDC Master Catalog

Two Line Element Set (TLE):
1 19548U 88091B   17020.37586466 -.00000304  00000-0  00000+0 0  9995
2 19548  14.8712   9.6892 0039549 306.7328 236.5415  1.00277591 90923
Source of the keplerian elements: AFSPC